Time,TemperatureF,DewpointF,PressureIn,WindDirection,WindDirectionDegrees,WindSpeedMPH,WindSpeedGustMPH,Humidity,HourlyPrecipIn,Conditions,Clouds,dailyrainin,SolarRadiationWatts/m^2,SoftwareType,DateUTC
2013-06-25 00:01:00,63.2,51.0,29.61,ESE,105,0.0,4.0,65,0.00,,,0.00,0,weatherlink.com 1.10,2013-06-25 08:01:00,
2013-06-25 00:16:00,63.0,51.0,29.61,ESE,105,4.0,5.0,65,0.00,,,0.00,0,weatherlink.com 1.10,2013-06-25 08:16:00,
2013-06-25 00:31:00,63.1,51.0,29.61,ENE,72,3.0,7.0,64,0.00,,,0.00,0,weatherlink.com 1.10,2013-06-25 08:31:00,
2013-06-25 00:46:00,63.0,51.0,29.61,ENE,72,2.0,4.0,64,0.00,,,0.00,0,weatherlink.com 1.10,2013-06-25 08:46:00,
2013-06-25 01:01:00,62.9,50.0,29.61,NE,44,2.0,7.0,62,0.00,,,0.00,0,weatherlink.com 1.10,2013-06-25 09:01:00,
2013-06-25 01:16:00,62.2,49.0,29.61,NE,45,2.0,3.0,63,0.00,,,0.00,0,weatherlink.com 1.10,2013-06-25 09:16:00,
2013-06-25 01:31:00,61.8,49.0,29.61,NE,45,0.0,2.0,64,0.00,,,0.00,0,weatherlink.com 1.10,2013-06-25 09:31:00,
2013-06-25 01:46:00,61.1,49.0,29.61,NE,45,3.0,4.0,65,0.00,,,0.00,0,weatherlink.com 1.10,2013-06-25 09:46:00,
2013-06-25 02:01:00,60.5,49.0,29.61,ENE,67,6.0,7.0,66,0.00,,,0.00,0,weatherlink.com 1.10,2013-06-25 10:01:00,
2013-06-25 02:16:00,60.0,49.0,29.61,ESE,105,2.0,6.0,67,0.00,,,0.00,0,weatherlink.com 1.10,2013-06-25 10:16:00,
2013-06-25 02:31:00,59.7,50.0,29.61,ESE,105,4.0,6.0,71,0.00,,,0.00,0,weatherlink.com 1.10,2013-06-25 10:31:00,
2013-06-25 02:46:00,59.1,50.0,29.61,East,98,0.0,6.0,73,0.00,,,0.00,0,weatherlink.com 1.10,2013-06-25 10:46:00,
2013-06-25 03:01:00,58.9,51.0,29.61,East,99,0.0,5.0,74,0.00,,,0.00,0,weatherlink.com 1.10,2013-06-25 11:01:00,
2013-06-25 03:17:00,58.8,51.0,29.62,ESE,105,0.0,4.0,74,0.00,,,0.00,0,weatherlink.com 1.10,2013-06-25 11:17:00,
2013-06-25 03:32:00,58.3,50.0,29.62,ESE,105,0.0,4.0,75,0.00,,,0.00,0,weatherlink.com 1.10,2013-06-25 11:32:00,
2013-06-25 03:47:00,58.2,50.0,29.62,ESE,104,0.0,5.0,74,0.00,,,0.00,0,weatherlink.com 1.10,2013-06-25 11:47:00,
2013-06-25 04:02:00,58.0,50.0,29.62,ESE,104,1.0,4.0,74,0.00,,,0.00,0,weatherlink.com 1.10,2013-06-25 12:02:00,
2013-06-25 04:17:00,57.7,50.0,29.62,ESE,104,1.0,6.0,75,0.00,,,0.00,0,weatherlink.com 1.10,2013-06-25 12:17:00,
2013-06-25 04:32:00,57.4,50.0,29.63,ESE,104,0.0,1.0,76,0.00,,,0.00,5,weatherlink.com 1.10,2013-06-25 12:32:00,
2013-06-25 04:47:00,57.4,50.0,29.62,ESE,104,0.0,0.0,76,0.00,,,0.00,11,weatherlink.com 1.10,2013-06-25 12:47:00,
2013-06-25 05:02:00,57.8,50.0,29.61,ESE,104,0.0,0.0,75,0.00,,,0.00,19,weatherlink.com 1.10,2013-06-25 13:02:00,
2013-06-25 05:17:00,58.0,50.0,29.61,ESE,104,0.0,1.0,74,0.00,,,0.00,30,weatherlink.com 1.10,2013-06-25 13:17:00,
2013-06-25 05:32:00,58.4,50.0,29.61,ESE,104,0.0,2.0,73,0.00,,,0.00,44,weatherlink.com 1.10,2013-06-25 13:32:00,
2013-06-25 05:47:00,58.1,51.0,29.61,ESE,104,2.0,2.0,76,0.00,,,0.00,26,weatherlink.com 1.10,2013-06-25 13:47:00,
2013-06-25 06:02:00,58.9,50.0,29.61,ESE,104,0.0,2.0,73,0.00,,,0.00,56,weatherlink.com 1.10,2013-06-25 14:02:00,
2013-06-25 06:17:00,59.9,50.0,29.61,ESE,104,0.0,1.0,70,0.00,,,0.00,114,weatherlink.com 1.10,2013-06-25 14:17:00,
2013-06-25 06:32:00,60.1,50.0,29.61,ESE,104,0.0,2.0,70,0.00,,,0.00,144,weatherlink.com 1.10,2013-06-25 14:32:00,
2013-06-25 06:47:00,59.2,50.0,29.61,ESE,104,1.0,5.0,71,0.00,,,0.00,176,weatherlink.com 1.10,2013-06-25 14:47:00,
2013-06-25 07:02:00,59.6,50.0,29.61,ESE,104,0.0,4.0,71,0.00,,,0.00,206,weatherlink.com 1.10,2013-06-25 15:02:00,
2013-06-25 07:17:00,60.6,51.0,29.60,ESE,104,0.0,5.0,70,0.00,,,0.00,236,weatherlink.com 1.10,2013-06-25 15:17:00,
2013-06-25 07:32:00,60.8,51.0,29.60,ESE,104,0.0,5.0,70,0.00,,,0.00,264,weatherlink.com 1.10,2013-06-25 15:32:00,
2013-06-25 07:47:00,59.9,50.0,29.61,ESE,113,4.0,6.0,70,0.00,,,0.00,294,weatherlink.com 1.10,2013-06-25 15:47:00,
2013-06-25 08:02:00,61.3,51.0,29.60,ESE,113,0.0,2.0,69,0.00,,,0.00,318,weatherlink.com 1.10,2013-06-25 16:02:00,
2013-06-25 08:17:00,62.3,51.0,29.60,ESE,113,0.0,4.0,67,0.00,,,0.00,353,weatherlink.com 1.10,2013-06-25 16:17:00,
2013-06-25 08:32:00,62.9,51.0,29.60,ESE,113,0.0,2.0,66,0.00,,,0.00,373,weatherlink.com 1.10,2013-06-25 16:32:00,
2013-06-25 08:47:00,61.8,52.0,29.60,SE,144,5.0,6.0,71,0.00,,,0.00,118,weatherlink.com 1.10,2013-06-25 16:47:00,
2013-06-25 09:02:00,61.0,53.0,29.60,WSW,246,6.0,6.0,75,0.00,,,0.00,445,weatherlink.com 1.10,2013-06-25 17:02:00,
2013-06-25 09:17:00,62.0,54.0,29.60,WSW,254,3.0,7.0,75,0.00,,,0.00,476,weatherlink.com 1.10,2013-06-25 17:17:00,
2013-06-25 09:32:00,62.6,53.0,29.60,West,259,7.0,8.0,72,0.00,,,0.00,438,weatherlink.com 1.10,2013-06-25 17:32:00,
2013-06-25 09:47:00,61.4,53.0,29.59,WSW,255,2.0,9.0,73,0.00,,,0.00,578,weatherlink.com 1.10,2013-06-25 17:47:00,
2013-06-25 10:02:00,63.0,53.0,29.60,WSW,254,1.0,7.0,71,0.00,,,0.00,563,weatherlink.com 1.10,2013-06-25 18:02:00,
2013-06-25 10:17:00,63.6,54.0,29.60,WSW,253,2.0,7.0,70,0.00,,,0.00,352,weatherlink.com 1.10,2013-06-25 18:17:00,
2013-06-25 10:32:00,63.9,53.0,29.60,WSW,252,4.0,6.0,68,0.00,,,0.00,193,weatherlink.com 1.10,2013-06-25 18:32:00,
2013-06-25 10:47:00,62.8,52.0,29.60,WSW,242,4.0,6.0,69,0.00,,,0.00,341,weatherlink.com 1.10,2013-06-25 18:47:00,
2013-06-25 11:02:00,63.2,51.0,29.60,SW,226,0.0,6.0,64,0.00,,,0.00,362,weatherlink.com 1.10,2013-06-25 19:02:00,
2013-06-25 11:17:00,65.1,50.0,29.59,ESE,113,0.0,5.0,59,0.00,,,0.00,508,weatherlink.com 1.10,2013-06-25 19:17:00,
2013-06-25 11:32:00,66.0,50.0,29.59,East,93,2.0,7.0,57,0.00,,,0.00,429,weatherlink.com 1.10,2013-06-25 19:32:00,
2013-06-25 11:47:00,65.0,50.0,29.59,SSE,166,1.0,9.0,59,0.00,,,0.00,366,weatherlink.com 1.10,2013-06-25 19:47:00,
2013-06-25 12:02:00,65.5,51.0,29.59,SSW,197,1.0,7.0,59,0.00,,,0.00,729,weatherlink.com 1.10,2013-06-25 20:02:00,
2013-06-25 12:17:00,65.4,51.0,29.59,SSE,167,2.0,8.0,59,0.00,,,0.00,234,weatherlink.com 1.10,2013-06-25 20:17:00,
2013-06-25 12:32:00,66.3,51.0,29.59,SSE,155,0.0,6.0,58,0.00,,,0.00,258,weatherlink.com 1.10,2013-06-25 20:32:00,
2013-06-25 12:47:00,66.9,52.0,29.59,East,94,2.0,7.0,60,0.00,,,0.00,257,weatherlink.com 1.10,2013-06-25 20:47:00,
2013-06-25 13:02:00,67.5,52.0,29.60,ESE,111,0.0,6.0,58,0.00,,,0.00,255,weatherlink.com 1.10,2013-06-25 21:02:00,
2013-06-25 13:17:00,67.8,52.0,29.59,East,94,1.0,7.0,57,0.00,,,0.00,178,weatherlink.com 1.10,2013-06-25 21:17:00,
2013-06-25 13:32:00,67.9,52.0,29.59,East,95,5.0,8.0,57,0.00,,,0.00,156,weatherlink.com 1.10,2013-06-25 21:32:00,
2013-06-25 13:47:00,67.6,52.0,29.60,South,182,6.0,9.0,57,0.00,,,0.00,220,weatherlink.com 1.10,2013-06-25 21:47:00,
2013-06-25 14:02:00,68.0,51.0,29.59,ESE,114,1.0,7.0,55,0.00,,,0.00,185,weatherlink.com 1.10,2013-06-25 22:02:00,
2013-06-25 14:17:00,67.9,50.0,29.59,ESE,104,0.0,5.0,54,0.00,,,0.00,190,weatherlink.com 1.10,2013-06-25 22:17:00,
2013-06-25 14:32:00,68.1,51.0,29.59,ESE,115,0.0,8.0,55,0.00,,,0.00,172,weatherlink.com 1.10,2013-06-25 22:32:00,
2013-06-25 14:47:00,68.4,51.0,29.59,East,94,4.0,6.0,55,0.00,,,0.00,165,weatherlink.com 1.10,2013-06-25 22:47:00,
2013-06-25 15:02:00,68.2,52.0,29.59,ESE,104,1.0,6.0,56,0.00,,,0.00,163,weatherlink.com 1.10,2013-06-25 23:02:00,
2013-06-25 15:17:00,68.5,52.0,29.59,ESE,116,2.0,7.0,55,0.00,,,0.00,248,weatherlink.com 1.10,2013-06-25 23:17:00,
2013-06-25 15:32:00,68.6,53.0,29.60,South,170,9.0,10.0,57,0.00,,,0.00,223,weatherlink.com 1.10,2013-06-25 23:32:00,
2013-06-25 15:47:00,69.4,53.0,29.60,East,96,1.0,6.0,57,0.00,,,0.00,255,weatherlink.com 1.10,2013-06-25 23:47:00,
2013-06-25 16:02:00,68.8,54.0,29.60,South,174,5.0,12.0,59,0.00,,,0.00,524,weatherlink.com 1.10,2013-06-26 00:02:00,
2013-06-25 16:17:00,70.4,54.0,29.60,ESE,113,0.0,10.0,56,0.00,,,0.00,130,weatherlink.com 1.10,2013-06-26 00:17:00,
2013-06-25 16:32:00,69.2,55.0,29.60,SSE,164,10.0,12.0,61,0.00,,,0.00,114,weatherlink.com 1.10,2013-06-26 00:32:00,
2013-06-25 16:47:00,69.5,54.0,29.60,SE,128,5.0,9.0,59,0.00,,,0.00,195,weatherlink.com 1.10,2013-06-26 00:47:00,
2013-06-25 17:02:00,69.4,54.0,29.60,ESE,113,1.0,10.0,59,0.00,,,0.00,111,weatherlink.com 1.10,2013-06-26 01:02:00,
2013-06-25 17:17:00,70.3,55.0,29.60,SE,125,0.0,10.0,58,0.00,,,0.00,547,weatherlink.com 1.10,2013-06-26 01:17:00,
2013-06-25 17:32:00,71.1,55.0,29.60,SSE,150,5.0,12.0,58,0.00,,,0.00,265,weatherlink.com 1.10,2013-06-26 01:32:00,
2013-06-25 17:47:00,72.3,57.0,29.59,South,187,8.0,12.0,58,0.00,,,0.00,473,weatherlink.com 1.10,2013-06-26 01:47:00,
2013-06-25 18:03:00,71.7,56.0,29.59,SSW,196,2.0,14.0,59,0.00,,,0.00,243,weatherlink.com 1.10,2013-06-26 02:03:00,
2013-06-25 18:18:00,71.0,57.0,29.59,WSW,256,3.0,12.0,62,0.00,,,0.00,434,weatherlink.com 1.10,2013-06-26 02:18:00,
2013-06-25 18:33:00,71.7,57.0,29.60,WSW,238,5.0,9.0,61,0.00,,,0.00,374,weatherlink.com 1.10,2013-06-26 02:33:00,
2013-06-25 18:48:00,70.2,57.0,29.60,SW,233,6.0,10.0,64,0.00,,,0.00,413,weatherlink.com 1.10,2013-06-26 02:48:00,
2013-06-25 19:03:00,70.3,56.0,29.60,WSW,254,8.0,11.0,61,0.00,,,0.00,411,weatherlink.com 1.10,2013-06-26 03:03:00,
2013-06-25 19:18:00,70.1,55.0,29.59,WSW,258,5.0,9.0,60,0.00,,,0.00,362,weatherlink.com 1.10,2013-06-26 03:18:00,
2013-06-25 19:33:00,69.7,55.0,29.59,WSW,252,5.0,7.0,60,0.00,,,0.00,295,weatherlink.com 1.10,2013-06-26 03:33:00,
2013-06-25 19:48:00,67.8,53.0,29.59,SW,234,7.0,9.0,60,0.00,,,0.00,250,weatherlink.com 1.10,2013-06-26 03:48:00,
2013-06-25 20:03:00,66.6,52.0,29.59,SW,232,8.0,9.0,59,0.00,,,0.00,258,weatherlink.com 1.10,2013-06-26 04:03:00,
2013-06-25 20:18:00,65.1,52.0,29.60,SW,219,6.0,9.0,63,0.00,,,0.00,246,weatherlink.com 1.10,2013-06-26 04:18:00,
2013-06-25 20:33:00,64.2,52.0,29.60,SW,233,7.0,10.0,64,0.00,,,0.00,220,weatherlink.com 1.10,2013-06-26 04:33:00,
2013-06-25 20:48:00,64.0,52.0,29.60,SSW,210,4.0,8.0,65,0.00,,,0.00,188,weatherlink.com 1.10,2013-06-26 04:48:00,
2013-06-25 21:03:00,64.5,52.0,29.60,WSW,240,1.0,7.0,65,0.00,,,0.00,158,weatherlink.com 1.10,2013-06-26 05:03:00,
2013-06-25 21:18:00,64.8,53.0,29.61,WSW,242,5.0,7.0,65,0.00,,,0.00,142,weatherlink.com 1.10,2013-06-26 05:18:00,
2013-06-25 21:33:00,66.1,53.0,29.61,WSW,242,5.0,6.0,64,0.00,,,0.00,105,weatherlink.com 1.10,2013-06-26 05:33:00,
2013-06-25 21:48:00,65.8,52.0,29.60,WSW,243,2.0,5.0,62,0.00,,,0.00,84,weatherlink.com 1.10,2013-06-26 05:48:00,
2013-06-25 22:03:00,65.3,52.0,29.60,WSW,244,2.0,5.0,62,0.00,,,0.00,58,weatherlink.com 1.10,2013-06-26 06:03:00,
2013-06-25 22:18:00,64.9,51.0,29.61,WSW,243,0.0,4.0,62,0.00,,,0.00,37,weatherlink.com 1.10,2013-06-26 06:18:00,
2013-06-25 22:33:00,66.7,52.0,29.61,WSW,249,1.0,4.0,60,0.00,,,0.00,26,weatherlink.com 1.10,2013-06-26 06:33:00,
2013-06-25 22:48:00,66.5,52.0,29.61,WSW,251,1.0,2.0,60,0.00,,,0.00,19,weatherlink.com 1.10,2013-06-26 06:48:00,
2013-06-25 23:03:00,68.2,55.0,29.62,WSW,252,2.0,3.0,63,0.00,,,0.00,11,weatherlink.com 1.10,2013-06-26 07:03:00,
2013-06-25 23:18:00,67.7,51.0,29.61,WSW,252,3.0,4.0,56,0.00,,,0.00,7,weatherlink.com 1.10,2013-06-26 07:18:00,
2013-06-25 23:33:00,64.9,51.0,29.62,WSW,251,0.0,4.0,60,0.00,,,0.00,5,weatherlink.com 1.10,2013-06-26 07:33:00,
2013-06-25 23:48:00,64.7,52.0,29.62,WSW,251,0.0,1.0,63,0.00,,,0.00,0,weatherlink.com 1.10,2013-06-26 07:48:00,